Tracking 17154 objects as of 1-August-2015
HD Live streaming from Space Station

IRIDIUM 18

Track IRIDIUM 18 now!
10-day predictions
IRIDIUM 18 is classified as:


NORAD ID: 24872
Int'l Code: 1997-034D
Perigee: 783.1 km
Apogee: 786.5 km
Inclination: 86.4 °
Period: 100.4 minutes
Semi major axis: 7155 km
RCS: 3.8649 m2 (large)
Launch date: July 9, 1997
Source: United States (US)
Your satellite tracking list
Your tracking list is empty





NASA's NSSDC Master Catalog

Two Line Element Set (TLE):
1 24872U 97034D   15213.36822621  .00000295  00000-0  98302-4 0  9990
2 24872 086.3988 308.7022 0002354 092.4441 267.7024 14.34221143945615

Source of the keplerian elements: AFSPC

N2YO: 220